NORTHEAST SUFFOLK  -  Coastal Flood Statement Coastal Flood Statement     Rip Current Statement Rip Current Statement     Rip Current Statement Rip Current Statement        NORTHWEST SUFFOLK  -  Coastal Flood Statement Coastal Flood Statement     Rip Current Statement Rip Current Statement     Rip Current Statement Rip Current Statement        SOUTHEAST SUFFOLK  -  Coastal Flood Statement Coastal Flood Statement     Rip Current Statement Rip Current Statement     Rip Current Statement Rip Current Statement        SOUTHWEST SUFFOLK  -  Coastal Flood Statement Coastal Flood Statement     Rip Current Statement Rip Current Statement     Rip Current Statement Rip Current Statement        NORTHERN NASSAU  -  Rip Current Statement Rip Current Statement        NORTHERN QUEENS  -  Rip Current Statement Rip Current Statement        SOUTHERN NASSAU  -  Rip Current Statement Rip Current Statement        SOUTHERN QUEENS  -  Rip Current Statement Rip Current Statement      

Active alerts

Northwest Suffolk
  Details for Northwest Suffolk Coastal Flood Statement  +2 additional alerts
Southwest Suffolk
  Details for Southwest Suffolk Coastal Flood Statement  +2 additional alerts
Northeast Suffolk
  Details for Northeast Suffolk Coastal Flood Statement  +2 additional alerts
Southeast Suffolk
  Details for Southeast Suffolk Coastal Flood Statement  +2 additional alerts
Northern Queens
  Details for Northern Queens Rip Current Statement
Southern Queens
  Details for Southern Queens Rip Current Statement
Northern Nassau
  Details for Northern Nassau Rip Current Statement
Southern Nassau
  Details for Southern Nassau Rip Current Statement


WXM80 ListenWXM80 Stop

You find our weather info also at:

UK Metoffice

WeatherCloud

Weather Underground

Northeastern Weather Network

AWEKAS

Citizen Weather Observer Program (CWOP)

HAMweather, WeatherForYou, PWS Weather


Weather Underground History page Text

Daily Summary for January 22, 2017 Units:  English    Metric   Both
« Previous Day
Next Day »
Daily Weekly Monthly Yearly Custom
  High: Low: Average:
Temperature: 47.8 °F 41.3 °F 43.8 °F
Dew Point: 44.2 °F 40.2 °F 42.5 °F
Humidity: 97 % 86 % 95 %
Wind Speed: 14.2 mph 0.0 mph 3.8 mph
Wind Gust: 20.0 mph - -
Wind:- - ENE
Pressure: 29.82 in 29.67 in -
Precipitation: 0.00 in    
Historical Graphs
 
 
Tabular Data for January 22, 2017
Time Temperature Dew Point Pressure Wind Wind Speed Wind Gust Humidity Rainfall Rate (Hourly)
00:04 44.9 °F 44.1 °F 29.75 in Calm     97 % 0.00 in
00:09 44.9 °F 44.1 °F 29.75 in Calm     97 % 0.00 in
00:14 44.9 °F 44.1 °F 29.75 in WNW 0.2 mph 1.2 mph 97 % 0.00 in
00:19 44.9 °F 44.1 °F 29.75 in WNW 0.1 mph 1.2 mph 97 % 0.00 in
00:24 44.8 °F 44.0 °F 29.75 in Calm   1.2 mph 97 % 0.00 in
00:29 44.8 °F 44.0 °F 29.75 in Calm     97 % 0.00 in
00:34 44.8 °F 44.0 °F 29.75 in WNW 0.4 mph 3.5 mph 97 % 0.00 in
00:39 44.8 °F 44.0 °F 29.75 in Calm     97 % 0.00 in
00:44 44.8 °F 44.0 °F 29.74 in Calm   1.2 mph 97 % 0.00 in
00:49 44.8 °F 44.0 °F 29.74 in Calm     97 % 0.00 in
00:54 44.8 °F 44.0 °F 29.74 in Calm     97 % 0.00 in
00:59 44.9 °F 44.1 °F 29.74 in Calm     97 % 0.00 in
01:05 44.9 °F 44.1 °F 29.73 in Calm   1.2 mph 97 % 0.00 in
01:10 44.9 °F 44.1 °F 29.74 in Calm     97 % 0.00 in
01:15 44.9 °F 44.1 °F 29.73 in Calm     97 % 0.00 in
01:20 44.9 °F 44.1 °F 29.74 in Calm     97 % 0.00 in
01:25 44.9 °F 44.1 °F 29.73 in Calm     97 % 0.00 in
01:30 44.9 °F 44.1 °F 29.73 in Calm     97 % 0.00 in
01:35 44.8 °F 44.0 °F 29.74 in West 0.1 mph 1.2 mph 97 % 0.00 in
01:40 44.9 °F 44.1 °F 29.74 in SSW 1.9 mph 3.5 mph 97 % 0.00 in
01:45 44.9 °F 44.1 °F 29.73 in Calm   1.2 mph 97 % 0.00 in
01:50 44.9 °F 44.1 °F 29.73 in Calm     97 % 0.00 in
01:55 44.9 °F 44.1 °F 29.73 in SSW 0.1 mph 1.2 mph 97 % 0.00 in
02:00 44.9 °F 44.1 °F 29.74 in SSW 4.0 mph 5.0 mph 97 % 0.00 in
02:05 44.9 °F 44.1 °F 29.74 in SW 1.3 mph 3.5 mph 97 % 0.00 in
02:10 45.0 °F 44.2 °F 29.73 in WSW 0.6 mph 2.3 mph 97 % 0.00 in
02:15 45.0 °F 44.2 °F 29.73 in Calm   1.2 mph 97 % 0.00 in
02:20 45.0 °F 44.2 °F 29.72 in Calm     97 % 0.00 in
02:25 45.0 °F 44.2 °F 29.73 in Calm   1.2 mph 97 % 0.00 in
02:30 44.9 °F 44.1 °F 29.72 in Calm     97 % 0.00 in
02:36 45.0 °F 44.2 °F 29.72 in Calm     97 % 0.00 in
02:41 44.9 °F 44.1 °F 29.73 in SW 0.5 mph 1.0 mph 97 % 0.00 in
02:46 44.9 °F 44.1 °F 29.72 in Calm   1.2 mph 97 % 0.00 in
02:51 44.9 °F 44.1 °F 29.72 in Calm   1.2 mph 97 % 0.00 in
02:56 44.9 °F 44.1 °F 29.72 in Calm     97 % 0.00 in
03:01 44.9 °F 44.1 °F 29.72 in Calm     97 % 0.00 in
03:06 44.9 °F 44.1 °F 29.72 in Calm     97 % 0.00 in
03:11 44.8 °F 44.0 °F 29.72 in Calm     97 % 0.00 in
03:16 44.8 °F 44.0 °F 29.72 in SW 1.1 mph 2.3 mph 97 % 0.00 in
03:21 44.8 °F 44.0 °F 29.72 in Calm   1.0 mph 97 % 0.00 in
03:26 44.7 °F 43.9 °F 29.73 in SW 1.0 mph 3.5 mph 97 % 0.00 in
03:31 44.7 °F 43.9 °F 29.72 in Calm     97 % 0.00 in
03:36 44.7 °F 43.9 °F 29.73 in Calm     97 % 0.00 in
03:41 44.7 °F 43.9 °F 29.71 in Calm   1.0 mph 97 % 0.00 in
03:46 44.7 °F 43.9 °F 29.71 in Calm     97 % 0.00 in
03:51 44.7 °F 43.9 °F 29.70 in Calm     97 % 0.00 in
03:56 44.7 °F 43.9 °F 29.70 in Calm     97 % 0.00 in
04:02 44.6 °F 43.8 °F 29.69 in NE 0.9 mph 2.3 mph 97 % 0.00 in
04:07 44.4 °F 43.6 °F 29.69 in NE 1.5 mph 3.5 mph 97 % 0.00 in
04:12 44.3 °F 43.5 °F 29.69 in NE 0.8 mph 2.3 mph 97 % 0.00 in
04:17 44.2 °F 43.4 °F 29.69 in Calm   1.2 mph 97 % 0.00 in
04:22 44.1 °F 43.3 °F 29.69 in NNE 0.5 mph 4.6 mph 97 % 0.00 in
04:27 44.0 °F 43.2 °F 29.70 in NNE 0.1 mph 1.2 mph 97 % 0.00 in
04:32 43.9 °F 43.1 °F 29.69 in NNE 1.1 mph 2.3 mph 97 % 0.00 in
04:37 43.8 °F 43.0 °F 29.69 in Calm     97 % 0.00 in
04:42 43.8 °F 43.0 °F 29.70 in Calm     97 % 0.00 in
04:47 43.7 °F 42.9 °F 29.69 in Calm     97 % 0.00 in
04:52 43.7 °F 42.9 °F 29.69 in Calm     97 % 0.00 in
04:57 43.6 °F 42.8 °F 29.70 in Calm     97 % 0.00 in
05:02 43.6 °F 42.8 °F 29.70 in Calm     97 % 0.00 in
05:07 43.6 °F 42.8 °F 29.70 in Calm     97 % 0.00 in
05:12 43.5 °F 42.7 °F 29.70 in Calm     97 % 0.00 in
05:18 43.5 °F 42.7 °F 29.69 in Calm     97 % 0.00 in
05:23 43.5 °F 42.7 °F 29.70 in Calm     97 % 0.00 in
05:28 43.5 °F 42.7 °F 29.70 in Calm     97 % 0.00 in
05:33 43.5 °F 42.7 °F 29.70 in Calm     97 % 0.00 in
05:38 43.6 °F 42.8 °F 29.70 in Calm     97 % 0.00 in
05:43 43.6 °F 42.8 °F 29.71 in Calm     97 % 0.00 in
05:48 43.6 °F 42.8 °F 29.70 in Calm   1.2 mph 97 % 0.00 in
05:53 43.5 °F 42.7 °F 29.70 in NNE 1.4 mph 2.3 mph 97 % 0.00 in
05:58 43.4 °F 42.6 °F 29.70 in Calm   1.2 mph 97 % 0.00 in
06:03 43.3 °F 42.5 °F 29.70 in Calm     97 % 0.00 in
06:08 43.3 °F 42.5 °F 29.70 in Calm     97 % 0.00 in
06:13 43.2 °F 42.4 °F 29.71 in NNE 0.1 mph 1.2 mph 97 % 0.00 in
06:18 43.1 °F 42.3 °F 29.71 in Calm     97 % 0.00 in
06:23 43.0 °F 42.2 °F 29.71 in Calm     97 % 0.00 in
06:28 43.0 °F 42.2 °F 29.71 in Calm     97 % 0.00 in
06:33 42.9 °F 42.1 °F 29.71 in Calm     97 % 0.00 in
06:38 42.8 °F 42.0 °F 29.71 in Calm     97 % 0.00 in
06:44 42.8 °F 42.0 °F 29.72 in Calm     97 % 0.00 in
06:49 42.7 °F 41.9 °F 29.72 in Calm     97 % 0.00 in
06:54 42.7 °F 41.9 °F 29.72 in Calm     97 % 0.00 in
06:59 42.7 °F 41.9 °F 29.72 in Calm     97 % 0.00 in
07:04 42.7 °F 41.9 °F 29.72 in Calm     97 % 0.00 in
07:09 42.7 °F 41.9 °F 29.72 in Calm     97 % 0.00 in
07:14 42.7 °F 41.9 °F 29.72 in Calm     97 % 0.00 in
07:19 42.8 °F 42.0 °F 29.73 in Calm     97 % 0.00 in
07:24 42.8 °F 42.0 °F 29.72 in Calm     97 % 0.00 in
07:29 42.9 °F 42.1 °F 29.72 in Calm     97 % 0.00 in
07:34 42.9 °F 42.1 °F 29.71 in Calm     97 % 0.00 in
07:39 43.1 °F 42.3 °F 29.71 in NNE 0.5 mph 2.3 mph 97 % 0.00 in
07:44 43.2 °F 42.4 °F 29.71 in Calm     97 % 0.00 in
07:49 43.2 °F 42.4 °F 29.71 in Calm     97 % 0.00 in
07:54 43.2 °F 42.4 °F 29.71 in NNE 0.1 mph   97 % 0.00 in
07:59 43.3 °F 42.5 °F 29.72 in Calm     97 % 0.00 in
08:04 43.3 °F 42.5 °F 29.71 in NNE 1.4 mph 2.3 mph 97 % 0.00 in
08:09 43.4 °F 42.6 °F 29.72 in NNE 1.5 mph 2.3 mph 97 % 0.00 in
08:14 43.6 °F 42.8 °F 29.71 in Calm   1.2 mph 97 % 0.00 in
08:19 43.6 °F 42.8 °F 29.72 in NNE 1.3 mph 3.5 mph 97 % 0.00 in
08:24 43.6 °F 42.8 °F 29.71 in NE 0.8 mph 3.5 mph 97 % 0.00 in
08:29 43.5 °F 42.7 °F 29.70 in NE 0.6 mph 2.0 mph 97 % 0.00 in
08:34 43.4 °F 42.6 °F 29.71 in Calm     97 % 0.00 in
08:39 43.3 °F 42.5 °F 29.71 in NE 0.5 mph 1.2 mph 97 % 0.00 in
08:44 43.0 °F 42.2 °F 29.71 in ENE 2.3 mph 3.5 mph 97 % 0.00 in
08:49 42.8 °F 42.0 °F 29.70 in ENE 2.9 mph 4.0 mph 97 % 0.00 in
08:54 42.8 °F 42.0 °F 29.70 in ENE 1.1 mph 3.0 mph 97 % 0.00 in
08:59 42.8 °F 42.0 °F 29.70 in ENE 3.5 mph 4.6 mph 97 % 0.00 in
09:04 42.7 °F 41.9 °F 29.70 in NE 3.3 mph 5.8 mph 97 % 0.00 in
09:09 42.6 °F 41.8 °F 29.71 in ENE 1.9 mph 3.5 mph 97 % 0.00 in
09:14 42.6 °F 41.8 °F 29.71 in NE 3.0 mph 4.6 mph 97 % 0.00 in
09:20 42.6 °F 41.8 °F 29.71 in ENE 3.4 mph 4.6 mph 97 % 0.00 in
09:25 42.7 °F 41.9 °F 29.71 in ENE 2.4 mph 4.0 mph 97 % 0.00 in
09:30 42.7 °F 41.9 °F 29.72 in ENE 2.4 mph 3.5 mph 97 % 0.00 in
09:35 42.9 °F 42.1 °F 29.72 in NE 3.9 mph 5.0 mph 97 % 0.00 in
09:40 42.9 °F 42.1 °F 29.72 in ENE 2.9 mph 4.6 mph 97 % 0.00 in
09:45 42.9 °F 42.1 °F 29.72 in ENE 3.1 mph 5.8 mph 97 % 0.00 in
09:50 43.0 °F 42.2 °F 29.73 in ENE 3.0 mph 4.6 mph 97 % 0.00 in
09:55 43.0 °F 42.2 °F 29.72 in East 2.0 mph 4.6 mph 97 % 0.00 in
10:00 42.9 °F 42.1 °F 29.72 in ENE 3.2 mph 4.6 mph 97 % 0.00 in
10:05 42.7 °F 41.9 °F 29.72 in ENE 3.9 mph 5.0 mph 97 % 0.00 in
10:10 42.5 °F 41.7 °F 29.72 in ENE 3.4 mph 6.9 mph 97 % 0.00 in
10:15 42.3 °F 41.5 °F 29.72 in ENE 3.8 mph 6.9 mph 97 % 0.00 in
10:20 42.3 °F 41.5 °F 29.72 in NE 2.4 mph 4.6 mph 97 % 0.00 in
10:25 42.3 °F 41.5 °F 29.73 in ENE 3.4 mph 4.0 mph 97 % 0.00 in
10:30 42.3 °F 41.5 °F 29.73 in ENE 3.6 mph 5.0 mph 97 % 0.00 in
10:35 42.3 °F 41.5 °F 29.73 in ENE 1.2 mph 3.5 mph 97 % 0.00 in
10:40 42.4 °F 41.6 °F 29.73 in NNE 1.7 mph 3.0 mph 97 % 0.00 in
10:46 42.6 °F 41.8 °F 29.73 in ENE 2.9 mph 4.6 mph 97 % 0.00 in
10:51 42.6 °F 41.8 °F 29.73 in NNE 3.0 mph 4.0 mph 97 % 0.00 in
10:56 42.7 °F 41.9 °F 29.73 in NNE 2.4 mph 4.6 mph 97 % 0.00 in
11:01 42.9 °F 42.1 °F 29.73 in NNE 1.7 mph 3.5 mph 97 % 0.00 in
11:06 43.0 °F 42.2 °F 29.73 in NNE 5.0 mph 8.1 mph 97 % 0.00 in
11:11 43.0 °F 42.2 °F 29.72 in NE 3.9 mph 5.8 mph 97 % 0.00 in
11:16 43.0 °F 42.2 °F 29.72 in ENE 3.0 mph 4.0 mph 97 % 0.00 in
11:21 43.0 °F 42.2 °F 29.72 in NNE 2.2 mph 4.0 mph 97 % 0.00 in
11:26 43.1 °F 42.3 °F 29.72 in NNE 2.8 mph 4.6 mph 97 % 0.00 in
11:31 43.2 °F 42.4 °F 29.72 in NNE 2.9 mph 4.6 mph 97 % 0.00 in
11:36 43.3 °F 42.5 °F 29.72 in NNE 2.8 mph 4.6 mph 97 % 0.00 in
11:41 43.2 °F 42.4 °F 29.72 in ENE 2.5 mph 5.8 mph 97 % 0.00 in
11:46 43.1 °F 42.0 °F 29.72 in ENE 2.5 mph 3.5 mph 96 % 0.00 in
11:51 42.9 °F 41.8 °F 29.71 in ENE 2.6 mph 4.0 mph 96 % 0.00 in
11:56 42.7 °F 41.6 °F 29.71 in ENE 3.2 mph 7.0 mph 96 % 0.00 in
12:01 42.4 °F 41.3 °F 29.71 in ENE 3.9 mph 9.2 mph 96 % 0.00 in
12:06 42.1 °F 41.0 °F 29.71 in NE 1.5 mph 4.6 mph 96 % 0.00 in
12:11 42.0 °F 40.9 °F 29.71 in ENE 3.6 mph 7.0 mph 96 % 0.00 in
12:17 41.8 °F 40.7 °F 29.70 in NE 3.1 mph 3.5 mph 96 % 0.00 in
12:22 41.7 °F 40.6 °F 29.70 in ENE 4.6 mph 5.0 mph 96 % 0.00 in
12:27 41.5 °F 40.4 °F 29.70 in NE 4.7 mph 6.9 mph 96 % 0.00 in
12:32 41.5 °F 40.4 °F 29.70 in NE 2.8 mph 4.6 mph 96 % 0.00 in
12:37 41.4 °F 40.3 °F 29.69 in ENE 4.1 mph 8.1 mph 96 % 0.00 in
12:42 41.3 °F 40.2 °F 29.69 in ENE 3.4 mph 6.9 mph 96 % 0.00 in
12:47 41.4 °F 40.3 °F 29.69 in ENE 3.4 mph 4.0 mph 96 % 0.00 in
12:52 41.5 °F 40.7 °F 29.69 in ENE 2.3 mph 5.8 mph 97 % 0.00 in
12:57 41.6 °F 40.8 °F 29.68 in ENE 3.6 mph 6.9 mph 97 % 0.00 in
13:02 41.6 °F 40.8 °F 29.68 in ENE 3.4 mph 5.0 mph 97 % 0.00 in
13:07 41.6 °F 40.8 °F 29.68 in ENE 4.1 mph 9.2 mph 97 % 0.00 in
13:12 41.6 °F 40.8 °F 29.68 in ENE 3.5 mph 5.0 mph 97 % 0.00 in
13:17 41.7 °F 40.9 °F 29.68 in NE 3.6 mph 6.9 mph 97 % 0.00 in
13:22 41.8 °F 41.0 °F 29.68 in ENE 2.5 mph 3.5 mph 97 % 0.00 in
13:27 42.0 °F 41.2 °F 29.68 in East 2.2 mph 4.6 mph 97 % 0.00 in
13:33 42.2 °F 41.4 °F 29.68 in ENE 4.2 mph 8.1 mph 97 % 0.00 in
13:38 42.2 °F 41.4 °F 29.67 in NE 4.1 mph 8.0 mph 97 % 0.00 in
13:43 42.5 °F 41.7 °F 29.67 in ENE 3.3 mph 6.0 mph 97 % 0.00 in
13:48 42.8 °F 42.0 °F 29.67 in ENE 5.1 mph 9.2 mph 97 % 0.00 in
13:53 42.9 °F 42.1 °F 29.67 in NE 4.1 mph 6.9 mph 97 % 0.00 in
13:58 42.9 °F 41.8 °F 29.67 in East 4.8 mph 6.9 mph 96 % 0.00 in
14:03 42.9 °F 41.8 °F 29.67 in East 4.5 mph 6.0 mph 96 % 0.00 in
14:08 43.0 °F 41.9 °F 29.67 in ENE 3.6 mph 5.8 mph 96 % 0.00 in
14:13 43.0 °F 41.9 °F 29.67 in ENE 4.2 mph 6.9 mph 96 % 0.00 in
14:15 42.9 °F 41.8 °F 29.67 in ENE 3.7 mph 6.9 mph 96 % 0.00 in
14:20 43.1 °F 42.0 °F 29.67 in ENE 3.9 mph 8.1 mph 96 % 0.00 in
14:25 43.0 °F 41.7 °F 29.68 in ENE 2.2 mph 4.6 mph 95 % 0.00 in
14:30 42.9 °F 41.6 °F 29.68 in NE 2.3 mph 3.5 mph 95 % 0.00 in
14:35 42.8 °F 41.5 °F 29.68 in ENE 3.4 mph 4.0 mph 95 % 0.00 in
14:40 42.8 °F 41.5 °F 29.68 in NE 2.9 mph 5.0 mph 95 % 0.00 in
14:45 42.8 °F 41.5 °F 29.69 in ENE 3.4 mph 4.6 mph 95 % 0.00 in
14:50 42.8 °F 41.5 °F 29.68 in NE 2.0 mph 5.8 mph 95 % 0.00 in
14:55 42.8 °F 41.5 °F 29.68 in NE 2.9 mph 5.0 mph 95 % 0.00 in
15:00 42.8 °F 41.5 °F 29.68 in NE 3.8 mph 5.8 mph 95 % 0.00 in
15:06 42.9 °F 41.6 °F 29.68 in NE 3.7 mph 4.6 mph 95 % 0.00 in
15:11 42.8 °F 41.5 °F 29.68 in ENE 4.0 mph 9.2 mph 95 % 0.00 in
15:16 42.9 °F 41.6 °F 29.67 in NE 3.7 mph 6.9 mph 95 % 0.00 in
15:21 42.9 °F 41.6 °F 29.68 in ENE 3.7 mph 5.8 mph 95 % 0.00 in
15:26 42.9 °F 41.6 °F 29.68 in ENE 4.1 mph 8.1 mph 95 % 0.00 in
15:31 43.2 °F 42.1 °F 29.68 in ENE 3.0 mph 6.9 mph 96 % 0.00 in
15:36 43.4 °F 42.3 °F 29.69 in NE 3.8 mph 7.0 mph 96 % 0.00 in
15:41 43.5 °F 42.2 °F 29.69 in ENE 4.7 mph 6.9 mph 95 % 0.00 in
15:46 43.5 °F 42.2 °F 29.69 in ENE 2.8 mph 4.6 mph 95 % 0.00 in
15:51 43.6 °F 42.3 °F 29.69 in East 3.3 mph 4.6 mph 95 % 0.00 in
15:56 43.7 °F 42.4 °F 29.69 in ENE 3.0 mph 5.0 mph 95 % 0.00 in
16:01 43.8 °F 42.5 °F 29.70 in ENE 2.1 mph 3.5 mph 95 % 0.00 in
16:06 43.9 °F 42.6 °F 29.69 in ENE 2.7 mph 5.0 mph 95 % 0.00 in
16:11 43.9 °F 42.6 °F 29.69 in ENE 2.7 mph 4.0 mph 95 % 0.00 in
16:16 43.8 °F 42.5 °F 29.70 in ENE 3.2 mph 4.6 mph 95 % 0.00 in
16:21 43.7 °F 42.4 °F 29.70 in ENE 3.4 mph 4.6 mph 95 % 0.00 in
16:26 43.6 °F 42.3 °F 29.70 in ENE 3.5 mph 5.0 mph 95 % 0.00 in
16:32 43.7 °F 42.4 °F 29.70 in ENE 6.5 mph 8.1 mph 95 % 0.00 in
16:37 43.6 °F 42.0 °F 29.70 in East 2.7 mph 4.6 mph 94 % 0.00 in
16:42 43.5 °F 41.9 °F 29.70 in ENE 3.1 mph 4.6 mph 94 % 0.00 in
16:47 43.4 °F 41.8 °F 29.70 in East 3.7 mph 6.9 mph 94 % 0.00 in
16:52 43.4 °F 42.1 °F 29.71 in East 2.7 mph 3.5 mph 95 % 0.00 in
16:57 43.4 °F 42.1 °F 29.71 in East 1.2 mph 3.0 mph 95 % 0.00 in
17:02 43.4 °F 42.1 °F 29.71 in East 2.2 mph 3.5 mph 95 % 0.00 in
17:07 43.4 °F 42.1 °F 29.72 in ENE 2.7 mph 4.6 mph 95 % 0.00 in
17:12 43.5 °F 42.2 °F 29.72 in ENE 2.8 mph 4.0 mph 95 % 0.00 in
17:17 43.4 °F 42.1 °F 29.72 in East 2.1 mph 3.5 mph 95 % 0.00 in
17:22 43.4 °F 42.1 °F 29.72 in East 2.0 mph 3.5 mph 95 % 0.00 in
17:27 43.4 °F 42.1 °F 29.72 in East 2.7 mph 3.5 mph 95 % 0.00 in
17:32 43.5 °F 42.2 °F 29.72 in East 3.5 mph 5.8 mph 95 % 0.00 in
17:37 43.6 °F 42.3 °F 29.72 in ENE 2.6 mph 4.6 mph 95 % 0.00 in
17:42 43.6 °F 42.3 °F 29.72 in ENE 2.9 mph 4.6 mph 95 % 0.00 in
17:47 43.6 °F 42.3 °F 29.72 in ENE 1.8 mph 3.0 mph 95 % 0.00 in
17:52 43.6 °F 42.3 °F 29.72 in East 1.7 mph 4.6 mph 95 % 0.00 in
17:57 43.7 °F 42.4 °F 29.71 in East 2.4 mph 5.8 mph 95 % 0.00 in
18:03 43.8 °F 42.2 °F 29.72 in East 2.7 mph 5.8 mph 94 % 0.00 in
18:08 43.8 °F 42.2 °F 29.71 in East 6.1 mph 8.1 mph 94 % 0.00 in
18:13 43.9 °F 42.3 °F 29.72 in ENE 5.5 mph 6.9 mph 94 % 0.00 in
18:18 43.9 °F 42.3 °F 29.72 in East 3.2 mph 4.6 mph 94 % 0.00 in
18:23 44.0 °F 42.4 °F 29.72 in ENE 3.8 mph 6.9 mph 94 % 0.00 in
18:28 44.1 °F 42.5 °F 29.72 in East 5.0 mph 7.0 mph 94 % 0.00 in
18:33 44.5 °F 42.9 °F 29.72 in East 5.9 mph 10.4 mph 94 % 0.00 in
18:38 45.0 °F 43.1 °F 29.73 in NE 6.8 mph 10.4 mph 93 % 0.00 in
18:43 45.4 °F 43.2 °F 29.73 in ENE 5.8 mph 8.1 mph 92 % 0.00 in
18:48 45.9 °F 43.7 °F 29.73 in ENE 9.0 mph 13.8 mph 92 % 0.00 in
18:53 46.5 °F 44.0 °F 29.73 in East 9.5 mph 13.8 mph 91 % 0.00 in
18:58 47.1 °F 44.0 °F 29.74 in East 10.0 mph 13.8 mph 89 % 0.00 in
19:03 47.5 °F 44.1 °F 29.74 in East 10.1 mph 14.0 mph 88 % 0.00 in
19:08 47.7 °F 44.0 °F 29.74 in East 14.2 mph 19.6 mph 87 % 0.00 in
19:13 47.8 °F 44.1 °F 29.74 in East 13.0 mph 18.4 mph 87 % 0.00 in
19:18 47.7 °F 44.0 °F 29.75 in East 12.6 mph 16.1 mph 87 % 0.00 in
19:23 47.4 °F 43.4 °F 29.76 in ENE 10.8 mph 14.0 mph 86 % 0.00 in
19:28 47.1 °F 43.4 °F 29.75 in East 11.1 mph 13.8 mph 87 % 0.00 in
19:33 46.9 °F 43.2 °F 29.75 in East 12.3 mph 16.1 mph 87 % 0.00 in
19:39 46.7 °F 43.3 °F 29.76 in East 10.0 mph 15.0 mph 88 % 0.00 in
19:44 46.4 °F 43.0 °F 29.76 in ENE 10.3 mph 13.8 mph 88 % 0.00 in
19:49 46.2 °F 42.8 °F 29.76 in East 10.3 mph 13.8 mph 88 % 0.00 in
19:54 46.0 °F 42.7 °F 29.76 in East 12.0 mph 16.0 mph 88 % 0.00 in
19:59 45.8 °F 42.7 °F 29.76 in East 11.5 mph 14.0 mph 89 % 0.00 in
20:04 45.6 °F 42.6 °F 29.76 in East 10.0 mph 16.0 mph 89 % 0.00 in
20:09 45.5 °F 42.8 °F 29.77 in East 10.0 mph 15.0 mph 90 % 0.00 in
20:14 45.5 °F 42.7 °F 29.77 in East 12.0 mph 15.0 mph 90 % 0.00 in
20:19 45.5 °F 42.7 °F 29.77 in East 9.0 mph 16.0 mph 90 % 0.00 in
20:24 45.5 °F 42.7 °F 29.77 in East 12.0 mph 16.0 mph 90 % 0.00 in
20:29 45.6 °F 42.8 °F 29.76 in East 10.0 mph 15.0 mph 90 % 0.00 in
20:34 45.6 °F 42.8 °F 29.76 in East 12.0 mph 18.0 mph 90 % 0.00 in
20:39 45.6 °F 42.8 °F 29.76 in East 12.0 mph 17.0 mph 90 % 0.00 in
20:44 45.6 °F 42.8 °F 29.76 in East 13.0 mph 16.0 mph 90 % 0.00 in
20:49 45.5 °F 42.7 °F 29.76 in East 12.0 mph 16.0 mph 90 % 0.00 in
20:54 45.4 °F 42.6 °F 29.76 in East 10.0 mph 16.0 mph 90 % 0.00 in
20:59 45.4 °F 42.6 °F 29.77 in East 10.4 mph 13.8 mph 90 % 0.00 in
21:04 45.2 °F 42.4 °F 29.78 in East 10.6 mph 13.8 mph 90 % 0.00 in
21:09 45.0 °F 42.2 °F 29.78 in East 10.1 mph 12.7 mph 90 % 0.00 in
21:14 44.9 °F 42.1 °F 29.78 in ENE 9.7 mph 11.5 mph 90 % 0.00 in
21:19 44.8 °F 42.0 °F 29.78 in East 8.6 mph 16.1 mph 90 % 0.00 in
21:24 44.7 °F 42.2 °F 29.78 in East 11.5 mph 13.8 mph 91 % 0.00 in
21:29 44.7 °F 42.2 °F 29.78 in East 9.3 mph 13.0 mph 91 % 0.00 in
21:34 44.7 °F 42.2 °F 29.79 in East 11.8 mph 15.0 mph 91 % 0.00 in
21:39 44.6 °F 42.1 °F 29.79 in East 10.3 mph 13.8 mph 91 % 0.00 in
21:44 44.6 °F 42.1 °F 29.79 in ENE 12.1 mph 15.0 mph 91 % 0.00 in
21:49 44.5 °F 42.0 °F 29.79 in East 11.2 mph 16.1 mph 91 % 0.00 in
21:54 44.4 °F 41.9 °F 29.79 in NE 10.7 mph 16.1 mph 91 % 0.00 in
21:59 44.3 °F 41.8 °F 29.79 in East 10.5 mph 13.8 mph 91 % 0.00 in
22:04 44.1 °F 41.6 °F 29.79 in East 9.4 mph 16.1 mph 91 % 0.00 in
22:10 44.0 °F 41.5 °F 29.80 in ENE 9.0 mph 12.7 mph 91 % 0.00 in
22:15 43.9 °F 41.4 °F 29.79 in East 10.3 mph 17.3 mph 91 % 0.00 in
22:20 43.9 °F 41.4 °F 29.79 in ENE 11.2 mph 13.0 mph 91 % 0.00 in
22:25 43.9 °F 41.7 °F 29.79 in East 12.5 mph 18.4 mph 92 % 0.00 in
22:30 43.9 °F 41.7 °F 29.80 in East 13.7 mph 16.1 mph 92 % 0.00 in
22:35 43.9 °F 41.7 °F 29.80 in ESE 12.1 mph 13.8 mph 92 % 0.00 in
22:40 43.8 °F 41.6 °F 29.80 in East 10.5 mph 15.0 mph 92 % 0.00 in
22:45 43.8 °F 41.9 °F 29.81 in ESE 13.9 mph 20.0 mph 93 % 0.00 in
22:50 43.7 °F 41.8 °F 29.81 in East 11.9 mph 13.8 mph 93 % 0.00 in
22:55 43.6 °F 41.7 °F 29.81 in East 10.0 mph 13.8 mph 93 % 0.00 in
23:00 43.6 °F 41.7 °F 29.81 in East 11.7 mph 16.1 mph 93 % 0.00 in
23:05 43.5 °F 41.6 °F 29.81 in East 10.4 mph 14.0 mph 93 % 0.00 in
23:06 43.5 °F 41.6 °F 29.81 in ENE 11.1 mph 15.0 mph 93 % 0.00 in
23:11 43.4 °F 41.5 °F 29.81 in East 11.5 mph 15.0 mph 93 % 0.00 in
23:16 43.3 °F 41.4 °F 29.81 in East 10.4 mph 14.0 mph 93 % 0.00 in
23:21 43.2 °F 41.6 °F 29.81 in NE 11.1 mph 14.0 mph 94 % 0.00 in
23:26 43.2 °F 41.6 °F 29.81 in ENE 9.9 mph 12.7 mph 94 % 0.00 in
23:31 43.1 °F 41.2 °F 29.81 in ENE 9.1 mph 13.8 mph 93 % 0.00 in
23:36 43.0 °F 41.1 °F 29.81 in ENE 8.3 mph 10.4 mph 93 % 0.00 in
23:41 42.9 °F 41.3 °F 29.81 in ENE 8.5 mph 10.4 mph 94 % 0.00 in
23:46 42.9 °F 41.3 °F 29.81 in ENE 8.2 mph 12.7 mph 94 % 0.00 in
23:51 42.8 °F 41.2 °F 29.82 in ENE 9.3 mph 12.7 mph 94 % 0.00 in
23:56 42.8 °F 41.2 °F 29.81 in ENE 9.5 mph 13.8 mph 94 % 0.00 in
Crab Meadow Weather
Compliments of Weather Underground - 3 mb

Script developed by  Jim McMurry - jmcmurry@mwt.net Adapted for the template by  Wim van der Kuil - Leuven-Template.eu

Recycling: Out of every $10 spent buying things, $1 (10%) goes for packaging that is thrown away. Packaging represents about 65% of household trash.